This demonstration page uses our WeatherBlox Daily Observations layout. Learn more.

Left ArrowRight Arrow

30.00354, -91.81873

Hourly Observations for September 3, 2022

Temp ( °F °C ) Dew Point ( °F °C ) Humidity (%) Winds ( mph kmh ) Pressure ( in mb ) Visibility ( mi km ) Precip ( " mm )
12:53 am 00:53 Mostly Clear 78 25.6 74 23.3 87 87 Calm 30.02 1017 10 16 0.01 0.13
1:53 am 01:53 Clear 77 25 74 23.3 90 90 SSE 3 6 30.01 1016 10 16 0.00 0.00
2:53 am 02:53 Clear 77 25 75 23.9 94 94 Calm 30.02 1017 10 16 0.00 0.00
3:53 am 03:53 Mostly Clear 78 25.6 75 23.9 90 90 Calm 30.02 1017 10 16 0.00 0.00
4:53 am 04:53 Mostly Clear 77 25 74 23.3 90 90 Calm 30.02 1017 10 16 0.00 0.00
5:53 am 05:53 Mostly Clear 77 25 73 22.8 88 88 E 3 6 30.01 1016 10 16 0.00 0.00
6:53 am 06:53 Mostly Sunny 76 24.4 73 22.8 91 91 Calm 30.03 1017 10 16 0.00 0.00
7:53 am 07:53 Mostly Sunny 78 25.6 75 23.9 90 90 S 3 6 30.06 1018 10 16 0.00 0.00
8:53 am 08:53 Sunny 82 27.8 75 23.9 79 79 S 6 9 30.06 1018 10 16 0.00 0.00
9:17 am 09:17 Mostly Cloudy 82 27.8 75 23.9 79 79 S 9 15 30.06 1018 10 16 0.00 0.00
9:32 am 09:32 Partly Cloudy 82 27.8 75 23.9 79 79 S 8 13 30.06 1018 10 16 0.00 0.00
9:53 am 09:53 Mostly Sunny 83 28.3 76 24.4 79 79 SSW 10 17 30.06 1018 10 16 0.00 0.00
10:53 am 10:53 Mostly Cloudy 84 28.9 75 23.9 74 74 SSW 8 13 30.07 1018 10 16 0.00 0.00
11:25 am 11:25 Partly Cloudy 86 30 75 23.9 70 70 S 12 19 30.06 1018 10 16 0.00 0.00
11:37 am 11:37 Mostly Cloudy 85 29.4 74 23.3 70 70 S 15 24 30.06 1018 10 16 0.00 0.00
11:53 am 11:53 Mostly Cloudy 83 28.3 75 23.9 77 77 SSW 13 20 30.06 1018 10 16 0.00 0.00
12:12 pm 12:12 Partly Cloudy 83 28.3 74 23.3 74 74 S 12 19 30.06 1018 10 16 0.00 0.00
12:19 pm 12:19 Mostly Cloudy 83 28.3 74 23.3 74 74 SSW 12 19 30.06 1018 10 16 0.00 0.00
12:50 pm 12:50 Partly Cloudy 82 28 73 23 74 74 SW 9 15 30.07 1018 10 16 0.00 0.00
12:53 pm 12:53 Partly Cloudy 82 27.8 74 23.3 77 77 WSW 8 13 30.07 1018 10 16 0.00 0.00
1:05 pm 13:05 Mostly Cloudy 79 26.1 72 22.2 79 79 NW 9 15 30.08 1019 10 16 0.00 0.00
1:35 pm 13:35 Cloudy with Heavy Rain 75 23.9 72 22.2 90 90 N 7 11 30.09 1019 2 3 0.11 2.79
1:53 pm 13:53 Cloudy with Heavy Rain 75 23.9 73 22.8 94 94 NNE 8 13 30.07 1018 1 2 0.37 9.40
2:03 pm 14:03 Cloudy with Rain 75 23.9 72 22.2 90 90 NE 6 9 30.08 1019 1 2 0.07 1.78
2:16 pm 14:16 Cloudy with Heavy Rain 75 23.9 73 22.8 94 94 N 5 7 30.08 1019 2 3 0.15 3.81
2:50 pm 14:50 Cloudy with Heavy Rain 74 23.3 72 22.2 94 94 NE 6 9 30.06 1018 2 3 0.58 14.73
3:01 pm 15:01 Cloudy with Rain 74 23.3 72 22.2 94 94 ENE 3 6 30.05 1018 4 6 0.03 0.76
3:25 pm 15:25 Cloudy with Rain 75 23.9 72 22.2 90 90 Calm 30.04 1017 2 3 0.10 2.54
3:35 pm 15:35 Cloudy with Rain 75 23.9 72 22.2 90 90 Calm 30.04 1017 3 5 0.13 3.30
3:44 pm 15:44 Cloudy with Rain 75 23.9 72 22.2 90 90 Calm 30.04 1017 2 3 0.17 4.32
3:53 pm 15:53 Cloudy with Rain 75 23.9 72 22.2 90 90 Calm 30.04 1017 2 3 0.20 5.08
4:06 pm 16:06 Cloudy with Rain 75 23.9 72 22.2 90 90 Calm 30.04 1017 3 5 0.03 0.76
4:53 pm 16:53 Partly Cloudy with Light Rain 74 23.3 72 22.2 94 94 S 5 7 30.03 1017 6 10 0.10 2.54
5:53 pm 17:53 Cloudy with Light Rain 74 23.3 72 22.2 94 94 Calm 30.01 1016 10 16 0.02 0.51
6:03 pm 18:03 Mostly Cloudy 74 23.3 73 22.8 97 97 WSW 3 6 30.01 1016 10 16 0.01 0.13
6:13 pm 18:13 Partly Cloudy 75 23.9 73 22.8 94 94 Calm 30.01 1016 10 16 0.01 0.13
6:23 pm 18:23 Mostly Cloudy 74 23.3 73 22.8 97 97 SSE 3 6 30.01 1016 10 16 0.01 0.13
6:35 pm 18:35 Partly Cloudy 74 23.3 73 22.8 97 97 SSW 3 6 30.01 1016 10 16 0.01 0.13
6:53 pm 18:53 Mostly Sunny 74 23.3 73 22.8 97 97 Calm 30.01 1016 10 16 0.01 0.13
7:53 pm 19:53 Clear 74 23.3 73 22.8 97 97 NNW 3 6 30.02 1017 10 16 0.00 0.00
8:53 pm 20:53 Clear 74 23.3 72 22.2 94 94 Calm 30.02 1017 10 16 0.00 0.00
9:53 pm 21:53 Clear 73 22.8 72 22.2 96 96 Calm 30.02 1017 7 11 0.01 0.13
10:33 pm 22:33 Clear with Mist and Fog 73 22.8 72 22.2 96 96 Calm 30.02 1017 2 3 0.00 0.00
10:43 pm 22:43 Clear with Mist and Fog 73 22.8 72 22.2 96 96 Calm 30.02 1017 4 6 0.00 0.00
10:53 pm 22:53 Clear with Mist and Fog 73 22.8 71 21.7 94 94 Calm 30.01 1016 2 2 0.00 0.00
11:09 pm 23:09 Clear with Mist and Fog 73 22.8 71 21.7 94 94 SSE 3 6 30.01 1016 3 4 0.00 0.00
11:16 pm 23:16 Mostly Clear with Mist and Fog 73 22.8 71 21.7 94 94 SSE 3 6 30.01 1016 5 8 0.00 0.00
11:33 pm 23:33 Mostly Cloudy with Mist and Fog 73 22.8 71 21.7 94 94 SSE 3 6 30.01 1016 2 3 0.00 0.00
11:44 pm 23:44 Mostly Clear with Mist and Fog 72 22.2 71 21.7 97 97 Calm 30.01 1016 1 1 0.00 0.00
11:53 pm 23:53 Mostly Clear with Fog 73 22.8 71 21.7 94 94 Calm 30.01 1016 1 1 0.00 0.00

Powered by AerisWeather